User: anonymous   Login
Location: Writing-on-Stone Provincial Park
(49.0825°N, 111.6163°W)
Time: 06:31:05
(UTC-07:00)
Language:

BREEZE-M DEB (TANK) - Orbit

View from above orbital plane
View from above orbital plane
View from above satellite
View from above satellite

Ground track
Ground track

The orbit data is extracted from the following two-line orbital elements,

1 29649U 06056B   14354.45983832  .00003292  00000-0  60831-3 0   758
2 29649 049.4751 176.0541 5403253 316.0279 020.8901 04.95647865142456
Epoch (UTC): 20 December 2014 11:02:10
Eccentricity: 0.5403253
inclination: 49.4751°
perigee height: 301 km
apogee height: 16004 km
right ascension of ascending node: 176.0541°
argument of perigee: 316.0279°
revolutions per day: 4.95647865
mean anomaly at epoch: 20.8901°
orbit number at epoch: 14245

The dashed part of the orbit path shows where the satellite is in the earth's shadow,  

DLR